sat.trackr.live / text

‹ back to catalog

STARLINK-4538

NORAD 53430 · 2022-097AU

PAYLOAD ACTIVE UNKNOWN

§ Identity

Operator
Country
US
Launch date
2022-08-10
Launch site
AFETR
Launch vehicle
Mass (kg)
RCS (m²)

Purposes: comms

External: N2YO · Heavens-Above · Gunter

§ Orbital elements

Epoch: 2026-05-25T04:47:10.795200Z

Period
95.44 min
Inclination
53.2133°
Eccentricity
0.0001183
Mean motion
15.08839998 rev/d
Perigee alt
538.9 km
Apogee alt
540.6 km
Semi-major
6,917.9 km
B*
3.9451e-5
RAAN
120.6908°
Arg perigee
72.4480°
Mean anomaly
287.6641°
Rev number
21,031

§ Raw data

STARLINK-45381 53430U 22097AU  26145.19943050  .00000340  00000+0  39451-4 0  99962 53430  53.2133 120.6908 0001183  72.4480 287.6641 15.08839998210319

JSON: /api/v1/satellites/53430 · /tle

For live sub-satellite position, see the globe view (requires WebGL).

§ Visibility from observer

Set your observer location to see the next 7 days of passes ≥ 10°. The values pass through the URL so the page stays shareable.

No JS? Fill the form by hand. The geolocation button needs JavaScript.